Weather History for Mandan, ND

Change the Weather History Date:

Tuesday, December 4, 2012

  Actual Average (KBIS) Record (KBIS)
Temperature  
Mean Temperature 19 °F 20 °F  
Max Temperature 24 °F 30 °F 65 °F (1979)
Min Temperature 14 °F 10 °F -20 °F (1875)
Degree Days  
Heating Degree Days 46 45  
Month to date heating degree days 178  
Since 1 July heating degree days 2164  
Cooling Degree Days 0 0  
Month to date cooling degree days 0  
Year to date cooling degree days 520  
Moisture  
Dew Point 17 °F    
Average Humidity 89    
Maximum Humidity 100    
Minimum Humidity 69    
Precipitation  
Precipitation 0.00 in 0.02 in 0.45 in (1926)
Month to date precipitation 0.07  
Year to date precipitation 17.43  
Snow  
Snow 0.00 in 0.30 in 4.40 in (1926)
Month to date snowfall 1.2  
Since 1 July snowfall 12.4  
Snow Depth -    
Sea Level Pressure  
Sea Level Pressure 30.17 in    
Wind  
Wind Speed 7 mph (ENE)    
Max Wind Speed 17 mph    
Max Gust Speed -    
Visibility 10 miles    
Events      
T = Trace of Precipitation, MM = Missing Value Source: NWS Daily Summary

Daily Weather History Graph

Daily Weather History Graph

Search for Another Location

Airport:

Trip Planner

Search our weather history database for the weather conditions in past years. The results will help you decide how hot, cold, wet, or windy it might be!

Date:

Astronomy

Dec. 04, 2012 Rise Set
Actual Time 8:11 AM CST 4:56 PM CST
Civil Twilight 7:37 AM CST 5:30 PM CST
Nautical Twilight 6:58 AM CST 6:08 PM CST
Astronomical Twilight 6:22 AM CST 6:45 PM CST
Moon 11:00 PM CST (12/4) 11:53 AM CST (12/4)
Length of Visible Light 9h 53m
Length of Day
8h 44m
Waning Gibbous, 69% of the Moon is Illuminated
Dec 4
Waning Gibbous
Dec 6
Last Quarter
Dec 13
New
Dec 19
First Quarter
Dec 28
Full

Hourly Weather History & Observations

Time (CST) Temp. Windchill Dew Point Humidity Pressure Visibility Wind Dir Wind Speed Gust Speed Precip Events Conditions
12:15 AM 23.0 °F 12.4 °F 23.0 °F 100% 30.00 in 10.0 mi NNW 10.4 mph - N/A   Clear
12:35 AM 24.8 °F 14.0 °F 23.0 °F 93% 30.00 in 10.0 mi NNW 11.5 mph - N/A   Clear
12:55 AM 23.0 °F - 21.2 °F 93% 30.02 in 10.0 mi Calm Calm - N/A   Clear
1:15 AM 23.0 °F 18.4 °F 21.2 °F 93% 30.03 in 10.0 mi WNW 3.5 mph - N/A   Clear
1:35 AM 23.0 °F 13.9 °F 21.2 °F 93% 30.03 in 10.0 mi NW 8.1 mph - N/A   Clear
1:55 AM 21.2 °F 13.6 °F 19.4 °F 93% 30.04 in 10.0 mi North 5.8 mph - N/A   Clear
2:15 AM 19.4 °F 9.5 °F 19.4 °F 100% 30.05 in 10.0 mi NNW 8.1 mph - N/A   Clear
2:55 AM 19.4 °F - 17.6 °F 93% 30.08 in 10.0 mi Calm Calm - N/A   Clear
3:15 AM 19.4 °F 9.5 °F 19.4 °F 100% 30.08 in 10.0 mi NNW 8.1 mph - N/A   Clear
3:35 AM 19.4 °F 11.5 °F 19.4 °F 100% 30.10 in 10.0 mi North 5.8 mph - N/A   Clear
3:55 AM 17.6 °F 10.7 °F 17.6 °F 100% 30.10 in 10.0 mi NW 4.6 mph - N/A   Clear
4:15 AM 19.4 °F 10.4 °F 17.6 °F 93% 30.10 in 10.0 mi NNW 6.9 mph - N/A   Clear
4:35 AM 17.6 °F 8.2 °F 17.6 °F 100% 30.11 in 10.0 mi NNW 6.9 mph - N/A   Clear
4:55 AM 17.6 °F 6.4 °F 17.6 °F 100% 30.12 in 10.0 mi NNW 9.2 mph - N/A   Clear
5:15 AM 15.8 °F 4.2 °F 15.8 °F 100% 30.12 in 10.0 mi NNW 9.2 mph - N/A   Clear
5:35 AM 17.6 °F 6.4 °F 15.8 °F 93% 30.13 in 10.0 mi NNW 9.2 mph - N/A   Clear
5:55 AM 15.8 °F 7.2 °F 15.8 °F 100% 30.14 in 10.0 mi North 5.8 mph - N/A   Clear
6:15 AM 15.8 °F 6.1 °F 15.8 °F 100% 30.14 in 10.0 mi NW 6.9 mph - N/A   Clear
6:35 AM 14.0 °F 5.1 °F 14.0 °F 100% 30.16 in 10.0 mi WNW 5.8 mph - N/A   Partly Cloudy
6:55 AM 14.0 °F 5.1 °F 14.0 °F 100% 30.17 in 10.0 mi NNW 5.8 mph - N/A   Partly Cloudy
7:15 AM 15.8 °F 7.2 °F 15.8 °F 100% 30.18 in 10.0 mi NW 5.8 mph - N/A   Clear
7:35 AM 14.0 °F 5.1 °F 14.0 °F 100% 30.19 in 10.0 mi NNW 5.8 mph - N/A   Clear
7:55 AM 14.0 °F 5.1 °F 14.0 °F 100% 30.20 in 10.0 mi NNW 5.8 mph - N/A   Clear
8:15 AM 14.0 °F 5.1 °F 14.0 °F 100% 30.21 in 10.0 mi NNW 5.8 mph - N/A   Clear
8:35 AM 14.0 °F 5.1 °F 14.0 °F 100% 30.21 in 10.0 mi NNW 5.8 mph - N/A   Clear
8:55 AM 15.8 °F 7.2 °F 14.0 °F 93% 30.22 in 10.0 mi North 5.8 mph - N/A   Clear
9:15 AM 15.8 °F 7.2 °F 14.0 °F 93% 30.23 in 10.0 mi North 5.8 mph - N/A   Clear
9:35 AM 15.8 °F 6.1 °F 14.0 °F 93% 30.23 in 10.0 mi North 6.9 mph - N/A   Clear
9:55 AM 17.6 °F 8.2 °F 14.0 °F 86% 30.24 in 10.0 mi NNE 6.9 mph - N/A   Clear
10:15 AM 17.6 °F 7.3 °F 15.8 °F 93% 30.25 in 10.0 mi NNE 8.1 mph - N/A   Clear
10:35 AM 17.6 °F 10.7 °F 15.8 °F 93% 30.25 in 10.0 mi NNE 4.6 mph - N/A   Clear
10:55 AM 17.6 °F 9.3 °F 14.0 °F 86% 30.26 in 10.0 mi NNE 5.8 mph - N/A   Clear
11:15 AM 19.4 °F 14.3 °F 14.0 °F 80% 30.26 in 10.0 mi ESE 3.5 mph - N/A   Clear
11:35 AM 19.4 °F 14.3 °F 14.0 °F 80% 30.26 in 10.0 mi East 3.5 mph - N/A   Clear
11:55 AM 19.4 °F 11.5 °F 15.8 °F 86% 30.26 in 10.0 mi South 5.8 mph - N/A   Clear
12:15 PM 21.2 °F 13.6 °F 15.8 °F 80% 30.24 in 10.0 mi East 5.8 mph - N/A   Clear
12:35 PM 23.0 °F 18.4 °F 15.8 °F 74% 30.23 in 10.0 mi ESE 3.5 mph - N/A   Clear
12:55 PM 23.0 °F 18.4 °F 15.8 °F 74% 30.23 in 10.0 mi ESE 3.5 mph - N/A   Clear
1:15 PM 23.0 °F 18.4 °F 15.8 °F 74% 30.23 in 10.0 mi SSE 3.5 mph - N/A   Clear
1:35 PM 23.0 °F 17.0 °F 15.8 °F 74% 30.24 in 10.0 mi SE 4.6 mph - N/A   Clear
1:55 PM 24.8 °F 17.9 °F 15.8 °F 69% 30.23 in 10.0 mi ESE 5.8 mph - N/A   Clear
2:15 PM 24.8 °F 16.9 °F 15.8 °F 69% 30.21 in 10.0 mi East 6.9 mph - N/A   Clear
2:35 PM 24.8 °F 19.1 °F 15.8 °F 69% 30.22 in 10.0 mi ESE 4.6 mph - N/A   Clear
2:55 PM 24.8 °F 19.1 °F 17.6 °F 74% 30.22 in 10.0 mi ESE 4.6 mph - N/A   Clear
3:15 PM 24.8 °F 16.9 °F 17.6 °F 74% 30.21 in 10.0 mi East 6.9 mph - N/A   Clear
3:35 PM 24.8 °F 16.9 °F 17.6 °F 74% 30.21 in 10.0 mi East 6.9 mph - N/A   Clear
3:55 PM 24.8 °F 16.1 °F 17.6 °F 74% 30.20 in 10.0 mi East 8.1 mph - N/A   Clear
4:15 PM 24.8 °F 15.3 °F 17.6 °F 74% 30.20 in 10.0 mi ESE 9.2 mph - N/A   Clear
4:35 PM 24.8 °F 15.3 °F 17.6 °F 74% 30.20 in 10.0 mi East 9.2 mph - N/A   Clear
4:55 PM 23.0 °F 13.1 °F 17.6 °F 80% 30.20 in 10.0 mi ESE 9.2 mph - N/A   Clear
5:15 PM 23.0 °F 13.1 °F 17.6 °F 80% 30.19 in 10.0 mi ESE 9.2 mph - N/A   Clear
5:35 PM 23.0 °F 12.4 °F 17.6 °F 80% 30.19 in 10.0 mi ESE 10.4 mph - N/A   Clear
5:55 PM 21.2 °F 11.7 °F 17.6 °F 86% 30.19 in 10.0 mi ESE 8.1 mph - N/A   Clear
6:15 PM 19.4 °F 9.5 °F 17.6 °F 93% 30.19 in 10.0 mi East 8.1 mph - N/A   Partly Cloudy
6:35 PM 21.2 °F 10.1 °F 17.6 °F 86% 30.20 in 10.0 mi ESE 10.4 mph - N/A   Partly Cloudy
6:55 PM 19.4 °F 9.5 °F 17.6 °F 93% 30.20 in 10.0 mi East 8.1 mph - N/A   Mostly Cloudy
7:15 PM 21.2 °F 10.9 °F 17.6 °F 86% 30.20 in 10.0 mi East 9.2 mph - N/A   Mostly Cloudy
7:35 PM 21.2 °F 10.1 °F 17.6 °F 86% 30.18 in 10.0 mi East 10.4 mph - N/A   Overcast
7:55 PM 21.2 °F 10.9 °F 17.6 °F 86% 30.18 in 10.0 mi ESE 9.2 mph - N/A   Overcast
8:15 PM 19.4 °F 8.6 °F 17.6 °F 93% 30.18 in 10.0 mi ESE 9.2 mph - N/A   Overcast
8:35 PM 19.4 °F 8.6 °F 17.6 °F 93% 30.18 in 10.0 mi East 9.2 mph - N/A   Scattered Clouds
8:55 PM 19.4 °F 8.6 °F 17.6 °F 93% 30.18 in 10.0 mi East 9.2 mph - N/A   Partly Cloudy
9:15 PM 19.4 °F 8.6 °F 19.4 °F 100% 30.18 in 10.0 mi East 9.2 mph - N/A   Clear
9:35 PM 19.4 °F 7.9 °F 17.6 °F 93% 30.17 in 10.0 mi East 10.4 mph - N/A   Clear
9:55 PM 19.4 °F 7.2 °F 17.6 °F 93% 30.16 in 10.0 mi East 11.5 mph - N/A   Clear
10:15 PM 19.4 °F 8.6 °F 17.6 °F 93% 30.17 in 10.0 mi East 9.2 mph - N/A   Clear
10:35 PM 19.4 °F 7.9 °F 19.4 °F 100% 30.15 in 10.0 mi East 10.4 mph - N/A   Clear
10:55 PM 19.4 °F 7.9 °F 19.4 °F 100% 30.14 in 10.0 mi East 10.4 mph - N/A   Clear
11:15 PM 21.2 °F 6.8 °F 19.4 °F 93% 30.13 in 10.0 mi ESE 17.3 mph - N/A   Clear
11:35 PM 21.2 °F 8.9 °F 19.4 °F 93% 30.13 in 10.0 mi ESE 12.7 mph - N/A   Clear
11:55 PM 21.2 °F 7.8 °F 17.6 °F 86% 30.14 in 10.0 mi SE 15.0 mph - N/A   Clear